User: anonymous   Login
Location: Brno
(49.2000°N, 16.6330°E)
Time: 00:41:28
(UTC+01:00)
Language:

Cosmos 1459 Rocket - Orbit

View from above orbital plane
View from above orbital plane
View from above satellite
View from above satellite

Ground track
Ground track

The orbit data is extracted from the following two-line orbital elements,

1 14059U 83042B   14354.56203725  .00000155  00000-0  13741-3 0  4471
2 14059 082.9711 017.0339 0041263 302.0707 168.0360 13.78483306590435
Epoch (UTC): 20 December 2014 13:29:20
Eccentricity: 0.0041263
inclination: 82.9711°
perigee height: 939 km
apogee height: 999 km
right ascension of ascending node: 17.0339°
argument of perigee: 302.0707°
revolutions per day: 13.78483306
mean anomaly at epoch: 168.0360°
orbit number at epoch: 59043

The dashed part of the orbit path shows where the satellite is in the earth's shadow,  

DLR